STARLINK-11585, 63309

Orbit data source: Space-Track

STARLINK-11585, 63309 is a payload satellite owned by SpaceX/Seattle (US) in LEO that was launched on Tue, 18 Mar 2025 UTC via an FALCON 9 launch vehicle from the Air Force Eastern Test Range (AFETR). Payload-class satellites include a variety of spacecraft equipped with specific instruments for various scientific and technological missions. These include communications satellites like Starlink; space stations such as the ISS; scientific satellites like the Hubble; Earth observation satellites from companies like Planet Labs, Umbra, and HawkEye 360; GPS; miniature CubeSats for education and research; and military/defense satellites.

Loading next visibility...
Identifier
63309, 2025-057C
Orbit
LEO
Country
Flag of USUS
Related business
Manufacturer
SpaceX/Seattle
Mission
Operational Commercial Communications
Bus & Motor
STARLINK V2MD, Unknown motor
Mass
960 kg wet, ~910 kg dry
Launch date (UTC)
2025-03-18 (2 years ago)
Launch vehicle
FALCON 9
Launch site
Air Force Eastern Test Range (AFETR)
Object type
Payload
Rocket body
Debris
Shape & HBR
Box + 2 Pan, 18.1 m
Radar Cross Section
36.964 m², Large (>1 m²)

Expand to show TLE details & history
Last TLE update: 11 hours ago

TLE from 11 hours ago
0 STARLINK-11585
1 63309U 25057C   26264.42437027  .00218417  00000-0  16583-2 0  9997
2 63309  42.9998 164.5256 0000461 303.3806  56.7017 15.70882466 87993
Epoch: 2026-09-21T10:11Z
TLE epoch observation values (Epoch: 2026-09-21T10:11:05.591Z)
Latitude
-0.00005°
Longitude
11.44786°
Altitude
355.974 km
Speed
7.698 km/s
True Right ascension
10h 58m 06s
True Declination
0° 00' 00"
Sunlit
Object was in daylight at epoch
Visualization orbit readout
Latitude
Unknown
Longitude
Unknown
Altitude
Unknown
Speed
Unknown
Apparent Right ascension
Unknown
Apparent Declination
Unknown
Sunlit
N/A
Visualization observer readout
Local Sidereal Time
14:28:30
Azimuth
Unknown
Elevation
Unknown
Doppler factor
Unknown
Orbital elements
Apogee altitude
358.666 km
Perigee altitude
358.045 km
Semi-major axis
6,736.492 km
Eccentricity
0.00005
Inclination
42.9998°
RAAN
164.5256°
Arg. of periapsis
303.3806°
True anomaly
56.70612°
Mean anomaly
56.7017°
Eccentric anomaly
56.70391°
Mean motion
3.92548 °/min
Orbital period
91.71 mins
BSTAR
0.0016583
Loading maneuver chart data...
Computing Atmospheric mass density...
Loading historical data...
Loading historical data...
Loading historical data...
Loading historical data...
Loading historical data...
Loading historical data...
Loading historical data...

Documentation

Showing up to 5 results
|